Defiance, OH

2:14 PM EST on February 26, 2017 (GMT -0500)
Defiance Memorial

Weather History for KDFI - June, 2013

Change the Weather History Date:

Saturday, June 29, 2013

  Actual Average Record
Temperature  
Mean Temperature 70 °F -  
Max Temperature 79 °F 82 °F 100 °F (1971)
Min Temperature 61 °F 60 °F 50 °F (1956)
Cooling Degree Days 4    
Growing Degree Days 20 (Base 50)    
Moisture  
Dew Point 62 °F    
Average Humidity 80    
Maximum Humidity 94    
Minimum Humidity 54    
Precipitation  
Precipitation 0.47 in - - ()
Sea Level Pressure  
Sea Level Pressure 29.62 in    
Wind  
Wind Speed 3 mph (NE)    
Max Wind Speed 13 mph    
Max Gust Speed -    
Visibility 8 miles    
Events Rain , Thunderstorm    
Averages and records for this station are not official NWS values.
T = Trace of Precipitation, MM = Missing Value Source: NWS Daily Summary

Daily Weather History Graph

Daily Weather History Graph

Search for Another Location

Airport or City:

Trip Planner

Search our weather history database for the weather conditions in past years. The results will help you decide how hot, cold, wet, or windy it might be!

Date:

Astronomy

Jun. 29, 2013 Rise Set
Actual Time 6:07 AM EDT 9:15 PM EDT
Civil Twilight 5:33 AM EDT 9:48 PM EDT
Nautical Twilight 4:50 AM EDT 10:31 PM EDT
Astronomical Twilight 3:58 AM EDT 11:23 PM EDT
Moon 12:39 AM EDT (6/29) 1:23 PM EDT (6/29)
Length of Visible Light 16h 15m
Length of Day
15h 07m
Waning Gibbous, 56% of the Moon is Illuminated
Jun 29
Waning Gibbous
Jun 30
Last Quarter
Jul 8
New
Jul 15
First Quarter
Jul 22
Full

Hourly Weather History & Observations

Time (EDT) Temp. Dew Point Humidity Pressure Visibility Wind Dir Wind Speed Gust Speed Precip Events Conditions
12:53 AM 64.0 °F 61.0 °F 90% 29.57 in 10.0 mi Calm Calm - N/A   Clear
1:53 AM 64.0 °F 61.0 °F 90% 29.57 in 10.0 mi Calm Calm - N/A   Clear
2:53 AM 62.1 °F 60.1 °F 93% 29.56 in 8.0 mi Calm Calm - N/A   Clear
3:53 AM 62.1 °F 59.0 °F 90% 29.56 in 9.0 mi Calm Calm - N/A   Clear
4:53 AM 61.0 °F 59.0 °F 93% 29.56 in 8.0 mi Calm Calm - N/A   Partly Cloudy
5:53 AM 62.1 °F 59.0 °F 90% 29.58 in 6.0 mi Calm Calm - N/A   Mostly Cloudy
6:53 AM 62.1 °F 60.1 °F 93% 29.58 in 4.0 mi Calm Calm - N/A   Overcast
7:53 AM 66.0 °F 62.1 °F 87% 29.58 in 6.0 mi Calm Calm - N/A   Mostly Cloudy
8:53 AM 68.0 °F 62.1 °F 81% 29.59 in 10.0 mi NNE 3.5 mph - N/A   Clear
9:53 AM 72.0 °F 62.1 °F 71% 29.59 in 10.0 mi NNE 5.8 mph - N/A   Scattered Clouds
10:53 AM 73.9 °F 63.0 °F 68% 29.60 in 10.0 mi Variable 5.8 mph - N/A   Scattered Clouds
11:06 AM 73.4 °F 62.6 °F 69% 29.61 in 10.0 mi NNE 5.8 mph - N/A   Mostly Cloudy
11:39 AM 73.4 °F 62.6 °F 69% 29.61 in 10.0 mi NNE 5.8 mph - N/A   Mostly Cloudy
11:53 AM 73.9 °F 63.0 °F 68% 29.60 in 10.0 mi NNE 6.9 mph - N/A   Mostly Cloudy
12:53 PM 75.9 °F 62.1 °F 62% 29.60 in 10.0 mi North 9.2 mph - N/A   Partly Cloudy
1:49 PM 78.8 °F 60.8 °F 54% 29.59 in 10.0 mi Variable 3.5 mph - N/A Thunderstorm Partly Cloudy
1:53 PM 78.1 °F 62.1 °F 58% 29.58 in 10.0 mi NE 8.1 mph - N/A Thunderstorm Scattered Clouds
2:15 PM 77.0 °F 60.8 °F 57% 29.60 in 10.0 mi NNE 3.5 mph - N/A   Scattered Clouds
2:53 PM 77.0 °F 60.1 °F 56% 29.59 in 10.0 mi North 4.6 mph - N/A   Scattered Clouds
3:12 PM 77.0 °F 60.8 °F 57% 29.61 in 10.0 mi Calm Calm - N/A Thunderstorm Mostly Cloudy
3:53 PM 72.0 °F 63.0 °F 73% 29.61 in 10.0 mi South 6.9 mph - N/A Thunderstorm Mostly Cloudy
4:10 PM 69.8 °F 64.4 °F 83% 29.62 in 2.0 mi SSE 5.8 mph - 0.12 in Rain , Thunderstorm Heavy Rain
4:17 PM 69.8 °F 64.4 °F 83% 29.62 in 3.0 mi South 5.8 mph - 0.14 in Rain , Thunderstorm Rain
4:25 PM 69.8 °F 62.6 °F 78% 29.61 in 10.0 mi South 5.8 mph - 0.14 in Rain Light Rain
4:41 PM 69.8 °F 62.6 °F 78% 29.61 in 10.0 mi Variable 3.5 mph - 0.14 in Thunderstorm Thunderstorm
4:53 PM 70.0 °F 63.0 °F 78% 29.62 in 10.0 mi Calm Calm - 0.14 in Thunderstorm Mostly Cloudy
5:50 PM 66.2 °F 60.8 °F 83% 29.65 in 10.0 mi East 5.8 mph - N/A   Overcast
5:53 PM 66.9 °F 61.0 °F 81% 29.65 in 10.0 mi ENE 4.6 mph - N/A   Overcast
6:13 PM 66.2 °F 62.6 °F 88% 29.64 in 10.0 mi ENE 8.1 mph - N/A Thunderstorm Mostly Cloudy
6:28 PM 66.2 °F 62.6 °F 88% 29.64 in 10.0 mi Calm Calm - 0.00 in Rain Light Rain
6:53 PM 66.0 °F 62.1 °F 87% 29.64 in 10.0 mi NNE 4.6 mph - 0.03 in Rain Light Rain
7:53 PM 66.0 °F 62.1 °F 87% 29.66 in 10.0 mi NE 4.6 mph - 0.02 in Rain Light Rain
8:53 PM 66.0 °F 63.0 °F 90% 29.68 in 10.0 mi Calm Calm - 0.00 in   Overcast
9:53 PM 66.0 °F 64.0 °F 93% 29.69 in 9.0 mi Calm Calm - N/A   Overcast
10:39 PM 66.2 °F 64.4 °F 94% 29.71 in 8.0 mi North 11.5 mph - 0.02 in Rain Light Rain
10:53 PM 66.9 °F 63.0 °F 87% 29.70 in 6.0 mi NE 12.7 mph - 0.04 in Rain Light Rain
11:31 PM 64.4 °F 62.6 °F 94% 29.72 in 2.5 mi ENE 5.8 mph - 0.15 in Rain Heavy Rain
11:48 PM 64.4 °F 62.6 °F 94% 29.72 in 4.0 mi NNE 6.9 mph - 0.22 in Rain Rain
11:53 PM 64.9 °F 62.1 °F 90% 29.71 in 4.0 mi NNE 6.9 mph - 0.24 in Rain Rain